"Pseudo-MPEC" for P1162jh

Created 2020 Sep 17 0:07:36 UT using Find_Orb

Click here for an explanation of pseudo-MPECs

 
 Astrometry: 
     P1162jh  C2020 09 1479?Rfyb7H.y[w(S0;hh7BOp7?R7\kVN^uJthavP;928A?\.DMPsxF51
     P1162jh  C2020 09 14A9*YOviWZ7+lZFi0a\vS#0:J.AT(?vuJ/$x64pM?AstrometrybaF51
     P1162jh  C2020 09 14@+r[gHiEdS9ha4CCTsrX(w2Z3FP:@lV:xNO?P;KW)3l0y)2'ZD;GF51
     P1162jh  C2020 09 14Dka8=XjE./vNkR_N?QUO+T2q6loQ9:wUXirkYryhHYpm1VA*aPZGF51
     P1162jh ^C2020 09 15.36882300 46 01.307-04 04 01.65   ~9FI7 21.98GVNEOCP568
     P1162jh ^C2020 09 15.37000200 46 01.295-04 03 58.02   ~9FI7 21.84GVNEOCP568
     P1162jh ^C2020 09 15.37136500 46 01.281-04 03 53.92   ~9FI7 21.87GVNEOCP568
     P1162jh KC2020 09 16_lO94ZR(1redacted;-`Z+YR*HTdGONBZjMn72:U;SCu`K-mf-MqH21
     P1162jh KC2020 09 16AYVclickig@ahIje]Z8+q$Fhere?SJn9uUaa=hY^5'i/h222wpliH21
     P1162jh KC2020 09 16!=m!Df/n4ijc+-,dE.SLw:cNM`DsO7vU[d)QgrAPW(\AMDNyvjm_H21
     P1162jh  C2020 09 16.37277 00 46 02.92 -03 13 09.7    ~9G9q 21.9 GVNEOCPV06
     P1162jh  C2020 09 16.37832 00 46 02.84 -03 12 52.5    ~9G9q 22.6 GVNEOCPV06
     P1162jh  C2020 09 16.38942 00 46 02.65 -03 12 19.0    ~9G9q 23.0 GVNEOCPV06
     P1162jh  C2020 09 16?tF=nOq_LM@h7#sXu:/-vEN#DW@!J%tD%8lUcQ[6K#(Nw`$kI1BIF51
     P1162jh  C2020 09 169EmJ3LLlFJr^='H8tstp[*k8-_]/_g[1Z(\,@S3B!)5O/RMD2CO$F51
     P1162jh  C2020 09 16[6=7LX$.forC^jYD02W-4:Bc=+oDP(gY`Ho#@`)xekB#[!HF4YStF51
     P1162jh  C2020 09 16O?k455qVw1$Ghx-qwLcs*xt,DbeQ9Zexplanation8^I'Mgx)ec-F51

Station data:
(568) Mauna Kea  (N19.826116 W155.472200)  US/Hawaii.
(F51) Pan-STARRS 1, Haleakala  (N20.707235 W156.255910)  US/Hawaii.
   Observers N. Primak, A. Schultz, S. Watters, J. Thiel, T. Goggia. Measurer
   PS1 Science Consortium. 1.8-m Ritchey-Chrétien + CCD.
(H21) Astronomical Research Observatory, Westfield  (N39.483057 W87.968270)
   US/Illinois. 0.76-m f/3.0 astrograph + CCD.
(V06) Catalina Sky Survey-Kuiper  (N32.416847 W110.732550)  US/Arizona.
   Observers T. A. Pruyne, B. M. Africano, E. J. Christensen, G. A. Farneth,
   D. C. Fuls, A. R. Gibbs, A. D. Grauer, H. Gröller, J. A. Johnson, R. A.
   Kowalski, S. M. Larson, G. J. Leonard, D. Rankin, R. L. Seaman, F. C.
   Shelly. 1.55-m reflector + CCD.

Orbital elements:  P1162jh
   Perihelion 2020 Sep 7.989755 +/- 0.187 TT = 23:45:14 (JD 2459100.489755)
Epoch 2020 Sep 16.0 TT = JDT 2459108.5   Earth MOID: 0.1554   AutoNEOCP
M   3.58326490 +/- 0.07             (J2000 ecliptic)
n   0.44733523 +/- 0.00368          Peri.  343.58767 +/- 0.17
a   1.69322228 +/- 0.00927          Node     4.56342 +/- 0.013
e   0.3160166 +/- 0.00305           Incl.    6.81533 +/- 0.051
P   2.20/804.75d           H 25.3   G  0.15   U  9.0  
q 1.15813592 +/- 0.00123    Q 2.22830864 +/- 0.0175
From 17 observations 2020 Sept. 14-16; mean residual 0".16
Residuals in arcseconds: 
200914 F51  .06+  .32+    200915 568  .00   .03-    200916 V06  .05-  .17-    
200914 F51  .15-  .22+    200916 H21  .07-  .30+    200916 F51  .22+  .07-    
200914 F51  .19+  .41-    200916 H21  .30-  .14+    200916 F51  .02-  .16-    
200914 F51  .04-  .14-    200916 H21  .02+  .17-    200916 F51  .12+  .08+    
200915 568  .03-  .04-    200916 V06  .06-  .07-    200916 F51  .11+  .07-    
200915 568  .02-  .01+    200916 V06  .10+  .20+    

Ephemerides (geocentric):
Date (UTC) HH   RA              Dec         delta   r     elong  mag " sig PA
---- -- -- --  -------------   -----------  ------ ------ -----  --- ---- ---
2020 09 17 00  00 46 04.565   -02 40 48.23  .16174 1.1610 163.2 22.5 .290 174
2020 09 17 01  00 46 04.611   -02 38 41.48  .16175 1.1610 163.3 22.5 .294 174
2020 09 17 02  00 46 04.652   -02 36 34.74  .16177 1.1610 163.3 22.5 .298 174
2020 09 17 03  00 46 04.689   -02 34 28.03  .16178 1.1610 163.4 22.5 .302 174
2020 09 17 04  00 46 04.722   -02 32 21.33  .16179 1.1611 163.4 22.5 .306 174
2020 09 17 05  00 46 04.750   -02 30 14.65  .16180 1.1611 163.4 22.5 .310 174
2020 09 17 06  00 46 04.774   -02 28 07.99  .16181 1.1611 163.5 22.5 .315 174
2020 09 17 07  00 46 04.793   -02 26 01.35  .16183 1.1611 163.5 22.5 .319 173
2020 09 17 08  00 46 04.808   -02 23 54.73  .16184 1.1612 163.5 22.5 .323 173
2020 09 17 09  00 46 04.819   -02 21 48.13  .16185 1.1612 163.6 22.5 .328 173
2020 09 17 10  00 46 04.825   -02 19 41.55  .16187 1.1612 163.6 22.5 .333 173
2020 09 17 11  00 46 04.827   -02 17 34.99  .16188 1.1613 163.7 22.5 .337 173
2020 09 17 12  00 46 04.824   -02 15 28.45  .16189 1.1613 163.7 22.5 .342 172
2020 09 17 13  00 46 04.817   -02 13 21.93  .16191 1.1613 163.7 22.5 .347 172
2020 09 17 14  00 46 04.806   -02 11 15.43  .16192 1.1613 163.8 22.5 .352 172
2020 09 17 15  00 46 04.791   -02 09 08.96  .16193 1.1614 163.8 22.5 .357 171
2020 09 17 16  00 46 04.771   -02 07 02.51  .16195 1.1614 163.8 22.5 .362 171
2020 09 17 17  00 46 04.747   -02 04 56.08  .16196 1.1614 163.9 22.5 .368 171
2020 09 17 18  00 46 04.718   -02 02 49.67  .16198 1.1614 163.9 22.5 .373 170
2020 09 17 19  00 46 04.686   -02 00 43.29  .16199 1.1615 164.0 22.5 .378 170
2020 09 17 20  00 46 04.649   -01 58 36.93  .16201 1.1615 164.0 22.5 .384 170
2020 09 17 21  00 46 04.608   -01 56 30.59  .16202 1.1615 164.0 22.5 .389 169
2020 09 17 22  00 46 04.562   -01 54 24.28  .16204 1.1616 164.1 22.5 .395 169
2020 09 17 23  00 46 04.513   -01 52 18.00  .16205 1.1616 164.1 22.5 .401 169
2020 09 18 00  00 46 04.459   -01 50 11.74  .16207 1.1616 164.1 22.5 .407 168
2020 09 18 01  00 46 04.401   -01 48 05.50  .16209 1.1616 164.2 22.5 .413 168
2020 09 18 02  00 46 04.339   -01 45 59.29  .16210 1.1617 164.2 22.5 .419 167
2020 09 18 03  00 46 04.273   -01 43 53.10  .16212 1.1617 164.3 22.5 .425 167
2020 09 18 04  00 46 04.203   -01 41 46.95  .16213 1.1617 164.3 22.5 .431 167
2020 09 18 05  00 46 04.128   -01 39 40.81  .16215 1.1618 164.3 22.5 .438 166
2020 09 18 06  00 46 04.049   -01 37 34.71  .16217 1.1618 164.4 22.5 .444 166
2020 09 18 07  00 46 03.967   -01 35 28.63  .16219 1.1618 164.4 22.5 .451 165
2020 09 18 08  00 46 03.880   -01 33 22.58  .16220 1.1619 164.4 22.5 .457 165
2020 09 18 09  00 46 03.789   -01 31 16.56  .16222 1.1619 164.5 22.5 .464 165
2020 09 18 10  00 46 03.694   -01 29 10.57  .16224 1.1619 164.5 22.5 .471 164
2020 09 18 11  00 46 03.595   -01 27 04.60  .16226 1.1619 164.6 22.5 .478 164
2020 09 18 12  00 46 03.492   -01 24 58.66  .16227 1.1620 164.6 22.5 .485 163
2020 09 18 13  00 46 03.385   -01 22 52.76  .16229 1.1620 164.6 22.5 .492 163
2020 09 18 14  00 46 03.274   -01 20 46.88  .16231 1.1620 164.7 22.5 .500 162
2020 09 18 15  00 46 03.158   -01 18 41.03  .16233 1.1621 164.7 22.5 .507 162
2020 09 18 16  00 46 03.039   -01 16 35.22  .16235 1.1621 164.7 22.5 .515 162
2020 09 18 17  00 46 02.916   -01 14 29.43  .16237 1.1621 164.8 22.5 .522 161
2020 09 18 18  00 46 02.789   -01 12 23.67  .16239 1.1622 164.8 22.5 .530 161
2020 09 18 19  00 46 02.658   -01 10 17.95  .16240 1.1622 164.8 22.5 .538 160
2020 09 18 20  00 46 02.523   -01 08 12.26  .16242 1.1622 164.9 22.5 .546 160
2020 09 18 21  00 46 02.384   -01 06 06.59  .16244 1.1623 164.9 22.5 .554 160
2020 09 18 22  00 46 02.242   -01 04 00.96  .16246 1.1623 165.0 22.5 .562 159
2020 09 18 23  00 46 02.095   -01 01 55.37  .16248 1.1623 165.0 22.5 .571 159